This is the latest recevied weather packets stored in our database for station/object EA3FL-15. If no packets are shown the sender has not sent any weather packets the latest 10 day(s).
| Time | Temp. | Humidity | Pressure | Rain* | Wind** | Luminosity | Snow |
|---|---|---|---|---|---|---|---|
| 1776955779 | 18.89° C | 100% | 1023.4 hPa | - | - | - | - |
| 1776954879 | 18.89° C | 100% | 1023.4 hPa | - | - | - | - |
| 1776953979 | 18.33° C | 100% | 1023.6 hPa | - | - | - | - |
| 1776953079 | 17.78° C | 100% | 1023.7 hPa | - | - | - | - |
| 1776951278 | 18.33° C | 100% | 1024 hPa | - | - | - | - |
| 1776950378 | 18.33° C | 100% | 1023.9 hPa | - | - | - | - |
| 1776949478 | 18.33° C | 100% | 1024.1 hPa | - | - | - | - |
| 1776948578 | 18.33° C | 100% | 1024.1 hPa | - | - | - | - |
| 1776947678 | 18.33° C | 100% | 1024.1 hPa | - | - | - | - |
| 1776946778 | 18.89° C | 91% | 1024.2 hPa | - | - | - | - |
| 1776945878 | 18.89° C | 87% | 1024.2 hPa | - | - | - | - |
| 1776944977 | 18.89° C | 84% | 1024.4 hPa | - | - | - | - |
| 1776944077 | 18.89° C | 94% | 1024.3 hPa | - | - | - | - |
| 1776943177 | 18.89° C | 89% | 1024.3 hPa | - | - | - | - |
| 1776942277 | 18.89° C | 90% | 1024.4 hPa | - | - | - | - |
| 1776941377 | 18.89° C | 100% | 1024.4 hPa | - | - | - | - |
| 1776940477 | 18.89° C | 100% | 1024.6 hPa | - | - | - | - |
| 1776939578 | 18.89° C | 100% | 1024.6 hPa | - | - | - | - |
| 1776938676 | 18.89° C | 96% | 1024.5 hPa | - | - | - | - |
| 1776937776 | 18.33° C | 93% | 1024.6 hPa | - | - | - | - |
| 1776936876 | 18.89° C | 100% | 1024.7 hPa | - | - | - | - |
| 1776935976 | 18.33° C | 100% | 1024.7 hPa | - | - | - | - |
| 1776935076 | 18.89° C | 100% | 1024.4 hPa | - | - | - | - |
| 1776934176 | 18.33° C | 100% | 1024.3 hPa | - | - | - | - |
| 1776933276 | 17.78° C | 100% | 1024.4 hPa | - | - | - | - |
* Rain since midnight (hover to see other rain measurements)
** Current wind speed in m/s (hover to see current wind gust speed)